Theta_e
318 318 317 317 317 317 317 316 316 316 315 315 316 316 315 316 315 316 317 314 315 315 316 317 316 317 317 317 318 318 318 319 319 319 319 319 319 319 318 319 319 318 317 318 318 318 319 319 319 319 319 319 318 318 317 316 316 316 315 315 315 314 314 313 313 313 313 313 312 312 313 313 313 313 313 312 312 316 320 324 328 332 330 328 325 322
316 316 317 317 317 317 317 317 316 315 315 315 315 316 316 316 316 317 316 314 314 314 315 316 317 317 317 317 318 318 318 318 319 319 319 319 319 319 319 319 319 319 318 317 316 317 317 317 318 318 318 318 318 318 317 317 316 316 316 315 315 315 314 314 314 314 313 313 312 312 313 313 313 313 313 312 313 315 318 325 331 330 330 329 325 322
316 316 317 317 317 316 316 316 316 315 316 316 316 316 316 317 317 316 315 314 314 314 315 316 316 317 317 317 318 318 318 318 319 319 319 319 319 319 319 319 320 320 320 318 317 317 317 317 317 317 318 318 318 318 318 317 317 316 316 316 315 315 315 314 314 314 314 313 312 312 312 312 313 313 312 312 315 319 319 322 327 328 328 327 324 324
315 315 316 316 316 315 315 315 315 315 316 316 317 316 316 318 316 314 314 315 314 314 315 316 316 316 317 317 318 319 319 319 319 319 319 320 319 320 319 319 320 320 320 319 318 319 317 317 317 317 317 317 317 318 317 317 317 316 316 316 316 315 315 315 314 314 314 313 312 312 311 312 312 313 312 313 318 322 320 318 319 321 323 323 323 326
315 315 314 315 315 314 315 315 315 315 315 317 318 317 316 318 316 315 315 315 315 315 315 316 316 316 318 319 319 320 320 320 320 320 320 319 318 318 318 318 318 318 318 318 318 318 318 317 317 317 317 317 317 317 317 317 317 317 316 316 316 315 315 315 315 314 313 313 312 312 311 311 312 312 313 314 317 320 319 317 316 318 322 325 325 327
315 314 313 315 315 315 316 315 316 316 315 316 319 318 316 316 317 317 317 316 315 315 316 317 315 314 317 319 320 320 320 320 320 320 320 319 318 318 318 317 316 316 316 316 316 317 317 317 317 317 316 317 317 317 317 317 317 316 316 316 315 315 315 315 314 314 313 313 312 312 311 311 312 312 312 314 315 317 319 318 317 322 326 325 324 325
315 313 314 316 316 317 318 315 317 318 314 314 318 319 317 317 318 317 318 317 314 315 317 317 314 313 315 316 317 318 318 318 319 320 320 320 320 319 319 319 318 318 318 318 317 316 317 316 316 317 316 317 317 317 317 317 317 316 315 315 315 314 315 314 314 314 313 313 312 311 311 311 311 312 312 313 315 318 320 319 318 322 324 323 321 322
315 313 315 317 317 318 317 316 318 317 314 316 317 317 317 318 319 318 318 317 316 318 317 316 316 316 316 316 317 318 317 318 319 319 320 320 321 320 321 321 319 319 319 318 316 316 316 316 317 317 317 318 318 318 317 317 317 317 316 315 314 314 314 314 314 313 313 312 312 311 310 310 311 312 313 313 316 320 321 320 319 321 322 322 320 320
316 315 316 316 316 317 316 317 319 317 316 318 316 317 318 318 319 319 319 317 318 319 316 318 319 317 316 317 318 319 317 317 318 319 320 320 321 321 320 320 319 318 318 317 316 316 316 317 318 318 318 319 318 318 318 317 317 316 316 315 314 314 314 313 313 313 312 311 311 311 310 310 310 312 313 314 317 320 320 320 320 321 321 322 322 321
315 314 315 316 316 317 316 315 317 318 317 316 316 317 318 318 318 319 318 317 318 317 317 320 319 315 314 315 317 320 318 317 318 318 319 319 321 321 319 319 318 318 318 318 318 318 318 318 319 319 319 319 319 318 318 318 317 316 315 315 314 314 313 313 313 312 312 311 311 310 310 310 310 311 312 314 315 317 319 320 321 321 321 323 324 323
313 312 313 316 316 316 315 312 314 317 317 316 317 318 318 318 318 318 317 317 316 316 317 319 319 314 313 314 317 319 318 318 318 317 319 320 321 320 318 318 319 318 319 319 319 319 319 319 319 319 318 318 318 318 318 318 317 317 316 315 315 314 313 313 314 312 311 311 311 311 310 309 309 310 311 313 314 315 319 321 320 320 321 323 325 324
314 314 314 315 314 314 314 313 313 314 316 318 318 317 316 317 317 316 317 318 315 314 316 317 318 316 313 314 317 318 317 317 318 318 318 318 321 320 318 317 317 317 317 318 319 319 319 319 319 318 318 318 318 318 318 318 318 317 317 316 315 314 314 314 314 313 311 311 311 310 310 309 309 310 310 311 313 314 318 321 320 320 320 322 324 323
315 316 316 314 312 314 316 315 314 314 316 318 317 315 314 314 316 315 317 319 316 315 315 315 317 318 315 315 317 317 317 317 317 319 319 318 319 320 319 319 317 317 317 317 317 318 319 319 319 318 317 318 318 318 318 318 318 317 316 316 315 314 314 314 314 312 311 311 311 310 310 309 309 309 310 312 313 313 316 320 321 321 320 321 322 320
316 317 316 315 313 313 315 315 315 314 315 316 316 316 314 312 314 316 317 317 316 315 314 313 316 317 315 316 317 317 317 318 318 318 319 319 319 319 320 319 318 317 316 316 316 316 317 317 317 317 317 318 318 318 318 317 317 317 317 316 315 314 314 314 314 312 311 311 311 310 310 309 309 309 310 312 313 314 318 321 322 321 320 320 321 319
316 316 316 316 314 314 315 316 315 315 315 316 316 316 315 313 314 315 315 315 315 315 313 313 315 315 315 316 317 318 317 318 318 317 317 317 317 317 317 317 317 317 316 316 316 316 316 316 317 317 318 318 318 318 317 317 317 317 317 316 315 315 314 314 314 313 312 311 310 310 309 309 309 309 310 312 313 314 318 320 320 320 318 318 319 319
315 316 317 316 315 314 316 317 317 317 316 316 317 318 317 315 313 313 314 314 314 314 314 314 315 315 316 316 316 317 317 317 317 317 317 316 317 317 317 317 317 317 317 316 316 317 317 317 317 318 318 318 318 318 317 317 317 317 317 317 316 315 314 314 314 313 312 311 311 310 310 309 309 309 310 311 312 314 316 318 318 317 317 317 318 319
315 316 317 315 314 314 315 317 318 317 316 316 317 318 318 317 315 314 314 313 313 313 314 315 315 315 314 315 316 315 316 316 316 317 317 317 318 318 317 317 316 317 317 317 317 318 318 318 318 318 318 318 318 318 317 317 317 317 317 317 316 316 315 314 314 314 313 312 311 311 310 310 309 309 309 309 311 313 316 318 317 315 316 318 319 320
315 315 314 314 315 314 312 314 316 316 316 317 317 317 316 316 315 314 314 314 314 315 314 314 314 314 313 314 316 316 316 316 316 317 317 318 318 319 318 317 317 318 317 317 318 318 318 318 319 319 318 318 318 317 317 317 317 317 317 317 316 316 315 314 314 314 313 312 312 311 311 310 310 309 309 309 309 311 314 316 315 314 317 319 319 319
315 315 314 312 314 314 311 313 315 314 314 316 316 316 315 315 315 314 314 315 315 316 316 315 314 314 313 314 314 315 316 316 316 316 317 317 317 319 319 319 320 319 318 317 318 318 319 319 318 319 318 318 318 318 318 318 317 317 317 317 316 316 315 314 314 314 313 312 311 311 310 310 310 309 309 310 310 310 311 312 313 315 317 318 318 317
314 314 315 311 312 314 312 313 315 315 314 314 314 315 315 316 315 314 315 314 314 315 316 316 315 314 315 315 315 315 316 316 316 316 316 317 317 318 320 320 321 320 318 317 317 318 319 319 319 318 318 318 318 318 318 318 318 318 317 317 317 316 316 315 314 314 314 313 312 312 311 310 310 309 310 310 309 310 311 310 312 316 317 317 317 316
313 313 314 312 311 313 314 314 315 316 315 313 313 314 315 315 315 314 316 315 314 315 315 315 315 314 315 316 316 316 316 316 316 316 317 318 319 320 320 319 318 318 318 317 317 318 319 319 318 319 318 319 318 318 318 318 318 318 317 318 317 317 317 316 315 315 314 314 313 312 311 310 310 309 310 309 309 310 310 310 312 315 316 316 315 316
314 313 313 314 313 314 315 316 315 316 316 315 313 314 315 315 315 315 316 316 315 315 315 315 315 315 315 317 317 316 316 317 317 318 318 318 320 321 319 317 317 318 317 317 318 318 318 319 318 318 318 318 318 318 318 317 317 318 317 317 317 317 318 317 316 316 315 314 313 312 311 310 310 309 310 309 309 309 310 311 312 314 315 314 315 316
314 314 314 315 315 316 315 315 314 315 316 316 315 315 315 315 315 315 316 316 315 315 315 316 316 316 316 316 316 316 317 317 318 318 319 319 320 319 318 317 317 317 317 318 318 318 318 318 318 318 318 318 318 318 318 318 317 317 317 317 317 317 317 317 316 316 315 314 314 312 311 310 310 309 309 309 309 309 310 311 313 313 313 314 315 315
314 314 314 314 315 316 315 314 313 313 314 316 317 316 316 316 316 316 315 315 316 316 315 315 316 316 317 318 319 318 317 317 316 317 318 319 319 317 317 317 317 317 317 318 318 318 318 318 318 318 318 318 318 317 317 318 318 318 317 317 317 317 317 317 317 316 315 315 314 312 311 310 310 309 309 309 310 310 310 311 313 313 313 314 315 315
314 314 314 314 315 316 316 315 315 314 314 314 315 316 316 317 317 317 316 314 316 317 317 316 316 315 317 320 319 316 316 316 316 316 316 317 317 316 317 317 317 317 317 317 318 317 318 318 318 317 318 317 317 317 317 317 317 317 317 317 317 317 317 317 316 316 316 315 314 312 311 311 310 309 309 309 310 310 310 310 312 313 313 314 315 314
315 315 314 314 316 317 318 318 318 316 314 314 315 316 316 317 317 317 316 316 316 318 318 317 316 315 316 317 316 316 316 316 317 317 316 316 316 316 317 317 317 317 316 317 317 317 317 317 317 317 317 317 317 317 317 317 317 316 316 317 317 317 317 317 316 316 316 316 314 313 312 311 310 309 309 309 310 310 310 310 311 313 313 314 314 313
316 317 316 315 315 316 317 318 319 317 315 315 316 316 316 317 317 317 317 316 317 317 317 317 316 316 316 315 315 316 317 316 316 317 317 317 317 317 317 317 317 317 317 316 316 317 317 317 317 317 317 317 317 317 317 317 317 316 316 317 317 317 316 316 316 315 316 316 315 313 312 311 310 309 309 308 309 310 310 309 310 313 314 314 313 312
317 315 315 316 315 315 316 317 317 317 316 316 317 317 316 317 318 318 317 316 316 317 317 316 317 317 316 315 315 316 316 316 316 316 317 317 317 317 316 316 316 316 317 317 316 316 317 317 317 317 317 317 317 317 317 317 317 316 316 317 317 317 316 316 316 315 315 315 315 314 313 311 310 309 309 308 308 309 309 309 310 312 314 312 311 311
317 315 315 317 316 315 316 316 316 316 316 316 317 317 317 317 318 318 317 316 316 317 317 316 317 318 317 315 316 316 316 317 316 316 317 317 317 316 316 316 316 316 317 317 316 316 316 316 317 317 317 317 317 316 316 316 316 316 316 317 317 317 317 316 316 315 315 315 315 315 313 312 311 309 309 308 307 307 308 308 310 312 313 312 312 311
315 315 315 316 316 316 316 316 316 316 316 316 316 316 316 317 318 317 316 316 316 317 316 316 317 317 316 316 316 316 316 317 317 317 317 317 317 316 316 316 315 316 316 317 317 317 317 317 317 317 317 317 316 317 316 316 316 316 317 317 317 317 316 316 316 315 315 315 315 315 313 312 311 310 308 308 307 307 307 307 309 310 311 312 312 312
314 315 315 314 315 316 315 315 316 317 317 317 317 317 316 317 317 318 317 317 317 317 317 316 317 317 316 316 316 316 317 317 317 317 317 317 317 316 316 316 316 316 316 316 317 317 317 317 317 317 317 317 317 317 316 316 316 316 317 317 317 317 316 316 316 316 315 315 315 314 312 311 311 309 308 308 307 307 306 307 308 309 311 311 311 311
313 315 315 314 315 316 316 315 316 316 317 318 317 317 317 316 316 317 317 317 317 317 317 318 318 317 316 316 316 316 317 317 317 317 317 317 317 317 316 316 316 316 316 316 316 316 316 317 317 317 317 317 317 316 316 316 316 316 317 317 317 317 316 316 316 315 315 315 315 314 313 311 310 309 308 307 307 307 306 306 307 309 310 310 310 310
312 313 314 315 316 316 316 316 316 316 317 318 317 316 316 316 316 316 316 317 316 317 317 317 317 316 315 316 316 316 316 317 317 317 317 318 317 317 317 316 316 316 316 316 316 316 317 316 316 317 317 317 317 317 316 316 315 316 316 316 317 317 316 316 315 315 315 315 314 314 312 311 309 309 308 307 306 306 306 306 307 308 309 309 310 310
312 313 314 315 316 316 316 316 316 317 318 319 318 316 316 316 316 317 317 316 316 316 316 316 316 316 316 316 316 316 316 317 317 317 317 317 317 317 317 317 316 316 316 316 316 316 316 316 316 317 317 317 317 316 317 316 315 315 316 316 316 316 316 316 315 315 315 314 314 313 312 310 309 308 307 306 306 306 306 306 307 308 308 308 308 308
311 312 313 314 315 315 316 316 317 318 319 317 316 316 315 315 316 317 317 317 316 317 317 316 316 316 316 316 316 317 317 317 317 317 317 316 316 317 317 316 316 316 316 316 316 316 316 316 316 316 316 316 316 316 316 316 316 315 316 316 316 316 316 315 314 314 314 314 314 313 311 309 308 307 307 306 305 305 305 305 306 306 307 307 307 307
312 312 313 314 314 314 315 315 317 318 317 315 315 315 315 315 316 317 318 317 316 316 316 316 316 316 316 317 316 317 317 316 316 316 316 316 316 316 316 316 316 316 316 316 316 316 316 316 316 316 316 316 316 316 316 316 315 315 315 315 316 315 315 315 314 313 313 313 313 312 310 309 307 306 306 305 305 305 305 305 305 305 305 306 306 305
313 313 313 313 313 314 314 315 315 316 316 315 315 315 315 316 315 316 317 317 316 316 316 316 316 316 317 317 317 317 316 316 316 316 316 316 316 316 316 316 316 316 315 315 316 315 315 315 316 316 315 316 316 315 315 315 315 315 315 315 315 315 314 314 313 312 313 313 312 311 309 308 306 305 305 304 304 304 304 304 304 305 305 305 305 305
313 313 313 313 314 314 314 314 314 315 315 315 315 315 315 315 315 316 317 317 316 316 317 316 316 317 317 317 317 317 317 317 317 317 316 316 316 316 316 316 316 316 315 315 315 315 315 315 315 315 315 315 315 314 314 315 315 314 314 315 314 314 313 312 312 312 312 311 311 309 308 307 305 304 304 303 303 303 302 303 303 303 304 304 304 304
313 313 313 313 313 314 314 314 314 314 315 314 315 315 314 314 315 316 318 318 316 315 316 316 316 316 317 317 317 316 317 317 317 316 316 316 316 316 316 316 316 316 315 315 315 314 314 314 314 314 314 313 313 313 314 314 314 314 314 314 313 312 312 311 311 311 311 309 308 307 306 305 304 303 303 302 302 301 301 301 302 302 302 302 302 302
313 313 312 313 313 314 313 313 313 314 314 315 315 315 313 313 314 317 317 317 316 315 315 315 316 316 316 316 316 317 317 317 317 316 316 316 316 315 315 315 315 315 315 315 314 314 314 314 314 314 313 313 312 313 313 313 313 313 313 312 311 311 310 310 310 310 309 307 307 306 305 304 303 302 302 301 300 300 300 300 300 301 301 301 301 300
312 312 312 313 314 314 313 314 314 313 314 314 314 313 313 314 316 317 317 316 314 315 315 315 315 315 315 315 315 316 316 316 316 316 316 315 315 314 313 314 314 314 314 314 314 314 314 314 314 313 313 312 312 312 312 313 312 312 312 311 310 310 309 309 309 308 307 306 305 304 303 302 302 301 300 300 299 299 298 298 299 299 299 299 299 298
312 312 312 312 313 313 313 313 313 314 314 313 313 313 313 314 316 316 316 314 314 315 315 315 316 315 315 315 315 315 316 316 316 315 315 315 313 312 312 313 313 313 313 313 313 314 314 314 314 313 313 312 312 312 312 312 312 312 311 310 309 309 308 308 307 306 306 305 304 303 302 301 300 300 299 298 298 298 298 298 298 298 298 297 297 297
312 312 311 312 312 313 313 313 313 315 314 312 312 313 313 313 314 313 313 313 314 314 314 315 315 315 315 315 315 315 315 315 315 314 313 313 312 312 312 312 312 312 312 312 312 313 313 313 313 313 312 312 312 312 312 311 311 310 309 309 308 308 307 306 306 305 304 303 302 302 301 300 299 299 298 298 297 297 297 297 297 297 297 296 296 295
311 311 310 311 312 313 313 313 313 313 311 309 309 310 310 310 309 309 308 309 311 312 312 312 312 312 312 312 314 314 314 314 313 312 312 311 311 310 310 311 311 311 311 311 312 312 312 312 312 312 312 311 311 311 310 310 309 308 307 307 307 306 306 305 304 303 303 302 301 300 300 299 299 298 298 297 297 297 297 297 297 297 297 296 295 294
309 309 307 309 311 311 311 311 310 309 308 307 306 306 306 306 306 307 307 307 308 309 309 308 309 310 310 309 310 312 312 312 311 311 310 310 309 309 310 310 310 310 310 311 311 312 311 312 311 311 311 310 310 309 308 308 307 307 307 306 306 306 305 304 303 302 302 301 300 300 299 299 298 298 297 297 297 297 297 296 296 296 295 295 294 294
308 306 305 307 308 308 308 309 308 307 307 306 305 305 304 305 305 306 306 307 308 308 308 308 309 310 309 309 308 309 309 310 309 309 310 309 309 309 310 310 310 310 310 310 310 311 311 311 311 310 309 309 308 307 307 307 306 306 306 306 305 305 304 303 302 302 301 301 300 300 299 299 298 297 297 296 296 296 296 295 295 295 294 294 294 293
306 305 305 306 306 306 307 307 306 305 305 304 304 304 305 305 306 307 307 307 308 309 309 309 309 309 309 309 309 308 309 308 308 309 309 310 310 310 309 310 310 310 310 310 310 310 310 309 309 308 308 307 306 306 306 306 305 305 304 305 305 304 303 302 302 302 301 301 300 300 299 299 299 298 297 296 296 295 295 294 294 294 293 293 293 293
304 304 303 303 303 303 304 304 303 303 303 303 303 304 305 305 306 306 307 307 308 308 308 309 309 309 309 309 309 309 309 309 309 309 309 309 309 309 310 310 310 310 310 310 310 310 310 309 307 307 306 305 305 305 305 305 305 304 304 304 304 303 303 302 302 302 302 301 301 300 299 299 298 298 297 296 295 295 294 293 293 293 293 293 294 294
301 301 301 301 301 301 301 302 302 302 302 303 304 304 304 304 305 305 306 306 307 308 308 308 309 309 309 309 309 309 309 309 309 309 308 308 308 309 310 310 310 310 310 310 309 309 309 308 307 306 305 304 304 305 305 305 305 304 303 303 303 303 303 303 302 302 302 301 300 300 299 298 298 297 297 296 295 295 294 294 294 294 294 294 294 294
300 300 300 301 300 300 300 301 301 301 302 302 303 302 302 302 303 304 305 306 306 307 307 307 307 307 307 307 307 308 308 308 309 308 308 308 308 308 309 310 310 310 310 310 308 307 306 307 306 305 305 304 304 304 305 305 305 305 303 303 304 304 304 304 303 302 302 301 300 300 299 299 298 298 298 298 297 297 296 296 295 294 294 294 293 293
299 299 299 300 299 300 299 299 300 300 300 301 301 301 301 302 303 304 304 305 306 306 306 306 306 306 306 306 306 307 307 307 308 308 307 307 307 308 308 309 309 310 310 309 308 306 305 305 305 304 304 303 304 305 305 305 305 305 304 304 304 304 304 303 303 302 302 301 301 301 300 300 299 299 298 298 298 297 297 296 295 293 293 293 292 292
Wind_Speed
3 4 5 6 6 7 8 5 0 3 4 3 2 3 4 3 2 3 5 4 0 4 8 10 12 15 15 14 16 20 20 20 21 20 20 19 19 20 21 24 26 29 33 32 32 33 32 31 31 30 28 27 27 27 27 29 31 31 32 33 32 31 31 32 32 31 31 32 32 33 33 32 32 32 32 31 31 34 34 33 32 33 34 33 32 30
3 5 6 6 2 2 4 2 1 1 2 3 3 3 3 4 2 3 4 2 2 2 6 8 11 15 14 13 16 19 18 20 21 21 21 21 20 20 22 26 27 27 28 31 33 33 33 34 33 33 31 30 30 30 29 30 31 32 33 34 33 33 33 33 33 32 32 31 31 33 33 32 32 32 32 31 30 31 33 34 33 32 32 33 32 30
4 7 5 4 5 5 4 2 3 4 4 3 3 4 3 2 1 3 4 2 2 3 5 7 10 14 15 14 16 19 19 22 23 21 21 21 20 21 22 23 22 20 22 28 32 31 32 34 33 35 34 32 31 31 31 31 32 33 34 34 34 34 34 34 34 33 32 31 31 33 33 32 33 32 32 31 30 29 30 33 35 35 35 35 33 31
5 4 2 6 6 4 3 3 5 4 4 5 4 4 3 1 1 1 2 1 3 4 7 8 8 12 16 14 15 19 22 24 23 19 19 20 21 23 24 22 21 22 23 27 28 26 28 30 29 30 30 30 30 31 32 32 33 35 35 35 35 35 35 34 34 33 32 32 31 33 33 33 33 31 31 31 29 28 28 30 34 36 36 35 34 32
4 2 3 4 4 5 4 5 6 5 4 6 6 6 4 1 1 1 2 2 5 6 5 7 7 8 11 11 11 10 11 14 16 14 15 19 22 24 25 24 24 26 27 28 27 24 25 27 26 24 23 24 25 27 28 30 32 34 35 36 36 37 37 36 35 34 33 34 33 33 34 34 32 30 31 31 30 30 29 29 31 33 32 30 30 30
3 4 4 5 4 5 5 5 7 6 5 6 7 8 8 5 2 2 3 4 5 4 2 3 6 5 5 8 9 5 4 8 11 12 15 18 20 22 24 25 25 27 28 28 28 26 26 28 27 26 24 23 23 23 24 25 28 31 34 35 36 37 38 37 36 35 35 35 34 33 33 34 33 33 33 33 32 32 31 29 30 32 31 27 27 28
2 4 3 5 6 5 5 5 7 7 6 4 3 3 6 5 2 2 3 3 4 3 1 1 5 5 6 11 13 11 11 13 11 12 15 16 16 19 20 22 24 25 25 25 26 25 24 25 25 24 23 22 22 22 23 24 25 27 31 33 35 37 38 38 37 37 36 35 34 33 33 33 34 34 34 32 31 31 31 28 29 32 32 29 28 29
5 6 4 5 6 6 5 5 5 8 7 2 1 3 0 2 2 2 2 3 3 5 3 5 4 7 8 11 14 13 14 15 12 12 13 15 17 17 15 15 16 16 16 17 19 19 19 19 19 19 19 19 20 21 22 24 25 26 28 30 33 35 36 37 37 36 36 34 34 33 32 33 33 33 32 31 30 30 31 29 29 31 31 30 29 29
4 7 8 9 7 6 5 0 4 10 6 1 2 3 4 3 1 1 2 4 2 5 5 6 5 6 7 7 9 9 11 13 12 11 12 12 12 10 7 7 7 8 9 10 11 11 13 13 12 12 13 13 14 17 20 22 23 25 26 28 29 31 33 34 35 35 34 33 33 32 32 33 33 32 32 31 30 30 30 29 30 32 32 32 32 32
2 2 4 7 7 5 3 6 3 5 3 3 4 5 6 4 3 1 2 3 2 5 6 6 8 6 8 6 7 5 6 9 10 10 8 5 4 4 3 2 2 3 3 4 5 6 8 8 7 7 7 8 10 12 15 18 21 23 24 26 27 29 30 32 33 32 32 32 32 31 31 32 32 33 33 32 30 31 31 30 31 33 33 34 36 36
3 2 1 4 3 1 6 7 6 3 4 8 7 5 5 3 2 0 2 1 3 7 4 6 11 6 7 4 7 5 3 5 7 5 3 5 6 7 6 3 1 1 2 2 5 6 7 7 6 5 7 9 10 11 12 14 16 19 22 24 26 27 29 30 30 29 29 31 31 30 31 32 33 34 34 33 32 32 32 31 31 32 32 34 36 37
2 2 1 2 1 4 7 6 5 4 4 5 4 4 3 2 2 2 3 2 5 6 0 2 4 5 7 4 4 2 2 1 3 3 3 2 4 6 5 4 6 6 6 6 7 8 9 9 8 8 10 12 13 13 13 13 14 16 19 22 25 26 28 29 29 27 27 29 30 30 30 32 34 34 34 33 33 33 33 32 32 32 32 33 36 36
3 5 4 4 2 5 6 5 5 2 2 4 4 6 4 3 4 4 5 4 6 4 2 2 1 4 11 9 3 3 4 4 6 6 7 7 8 8 8 10 14 14 12 11 11 11 12 13 12 12 14 15 15 15 15 16 16 16 17 19 22 24 26 28 28 26 26 29 30 30 30 32 34 35 34 33 32 32 32 33 34 33 32 33 35 34
3 3 5 5 2 8 9 6 5 4 5 8 7 7 6 5 5 7 6 5 5 2 2 1 0 4 10 9 7 10 10 9 9 10 12 13 13 13 11 12 16 18 18 16 16 17 17 18 18 17 16 16 16 16 17 18 18 18 18 19 20 22 24 26 27 25 26 28 29 29 30 32 34 34 34 34 32 31 30 32 34 34 33 33 34 33
7 4 8 9 6 12 13 8 6 6 8 10 8 7 7 6 7 7 5 5 5 1 1 2 2 5 6 3 2 4 5 6 7 8 12 15 14 12 12 14 17 19 21 20 20 20 21 21 19 17 16 16 17 17 18 18 18 18 18 18 19 20 22 24 25 24 25 27 28 29 30 31 33 34 34 34 33 31 31 32 33 32 32 32 32 32
9 6 7 7 7 17 15 8 6 7 7 7 5 6 7 5 6 5 1 1 1 2 2 4 4 6 5 7 9 9 8 8 9 10 12 15 14 11 14 16 16 18 22 22 20 17 16 17 16 15 16 17 18 17 17 17 16 16 15 16 17 17 18 21 24 23 23 25 27 29 30 32 34 34 34 35 34 33 33 33 33 32 31 30 30 32
7 3 5 4 5 12 8 2 4 4 3 5 5 6 3 2 2 4 1 3 1 5 5 5 6 7 7 13 13 13 14 13 13 14 14 14 13 12 17 23 24 24 25 21 16 12 12 13 14 15 16 16 16 15 14 13 12 11 11 12 13 14 16 19 22 22 21 21 24 27 29 31 33 34 34 34 34 34 34 35 34 33 32 30 30 32
5 2 2 3 4 5 1 3 1 2 2 3 5 5 2 3 2 3 4 1 3 8 6 6 11 10 7 9 4 5 8 8 8 10 10 11 12 13 20 27 27 25 22 16 12 12 12 13 14 15 15 13 12 10 8 7 6 6 7 8 10 12 15 17 20 21 20 20 22 26 28 30 32 33 33 33 33 33 35 37 36 34 33 32 30 30
4 4 1 0 1 3 3 1 3 1 1 1 1 1 1 2 4 5 5 5 6 8 6 8 13 10 9 10 7 6 9 8 7 8 8 10 12 13 16 18 15 15 15 11 11 14 15 14 14 13 12 10 9 7 6 5 4 4 4 5 8 11 13 16 18 20 20 20 22 25 27 28 30 32 32 33 33 33 35 37 36 35 34 32 30 30
4 5 3 1 1 3 5 5 7 5 3 1 3 2 1 2 4 5 5 5 7 8 7 8 10 8 9 11 12 15 15 13 11 9 8 9 11 12 13 12 10 10 12 11 12 15 17 17 15 14 13 10 9 8 6 5 4 4 5 6 7 9 11 14 17 19 20 20 22 24 26 26 28 30 31 32 33 33 34 36 36 35 35 33 31 30
4 5 5 1 0 3 5 8 10 9 8 5 5 6 5 3 1 2 4 5 5 7 7 8 8 8 8 8 11 13 12 10 9 7 5 6 10 11 10 13 15 15 17 16 12 17 19 18 17 15 13 10 10 9 7 5 4 4 6 8 8 10 12 13 15 17 19 20 21 22 23 25 27 29 31 31 32 32 33 33 35 35 35 32 31 30
6 6 6 4 4 7 6 5 6 7 8 9 9 9 10 8 5 4 7 5 4 4 5 6 7 9 9 6 7 10 9 6 5 5 5 7 9 10 11 15 18 18 19 17 12 18 20 20 20 16 13 12 11 10 9 7 6 7 9 9 10 12 13 14 15 17 19 19 20 20 21 24 26 28 30 31 31 32 32 32 34 35 34 31 30 30
6 4 7 6 5 6 3 3 2 1 2 5 7 8 9 9 8 8 8 4 3 3 2 4 7 10 12 7 5 7 5 3 4 4 5 8 9 10 13 19 21 18 17 14 15 20 21 22 22 18 16 15 14 14 12 10 9 10 11 11 12 14 15 15 16 18 19 21 20 20 20 24 26 27 30 31 31 32 32 31 31 32 32 30 30 31
3 3 7 7 5 3 4 4 3 2 1 5 6 4 5 7 8 7 4 1 3 5 4 6 8 11 12 5 2 3 1 1 5 7 8 8 10 14 18 22 23 19 16 15 19 21 23 24 23 22 20 18 17 16 14 12 11 12 13 12 13 15 16 17 18 19 21 22 21 20 22 24 25 27 31 33 33 32 31 31 30 30 30 30 31 31
5 4 6 6 6 5 5 4 3 2 3 5 7 6 7 8 7 2 0 1 4 7 9 9 8 11 9 1 3 2 2 4 7 8 10 11 15 19 21 21 22 20 17 17 21 22 25 27 26 24 22 20 19 18 16 14 13 14 14 12 12 16 18 19 19 21 22 23 22 22 23 25 25 27 30 33 34 32 30 30 31 31 31 31 31 30
6 4 6 7 8 8 7 4 3 4 5 5 7 11 13 13 12 6 2 4 8 9 11 10 9 12 15 9 5 4 4 5 6 7 10 14 18 21 21 20 22 22 20 19 22 24 26 28 27 25 24 21 20 19 17 15 14 15 16 13 13 16 19 20 21 22 23 24 24 24 24 25 25 26 29 32 34 32 30 30 31 32 33 33 31 29
2 2 7 10 10 10 8 2 3 5 7 7 9 13 13 14 15 10 5 7 10 10 11 13 12 16 21 21 17 10 6 5 7 9 11 13 14 17 18 20 22 25 28 25 24 27 28 30 29 27 24 21 21 20 18 15 15 16 16 14 15 16 18 20 22 23 24 25 26 25 25 25 25 26 26 29 32 32 31 31 31 31 32 31 30 29
1 3 9 12 13 14 13 6 2 3 5 8 10 11 12 12 12 10 10 12 12 9 11 14 14 17 20 23 23 19 13 10 10 13 16 14 13 14 18 22 24 27 32 31 28 30 32 32 32 28 24 22 23 23 19 18 17 16 16 16 17 17 19 21 23 24 25 25 26 26 26 25 25 25 25 26 29 32 32 32 31 31 31 30 30 30
1 4 7 8 11 15 15 11 7 7 8 8 9 10 11 13 13 13 15 18 16 12 12 14 16 17 19 23 24 19 15 17 19 20 22 21 20 20 22 24 26 27 31 32 29 28 31 33 32 28 25 25 26 25 23 22 20 18 18 19 19 19 20 22 24 24 25 25 26 27 27 26 25 25 25 25 27 31 33 32 32 32 32 32 33 33
2 3 5 6 8 13 15 14 12 13 13 12 12 12 10 11 15 17 18 20 20 17 16 18 21 22 21 22 23 23 23 26 28 28 27 24 22 22 22 23 26 29 32 33 32 29 30 33 34 32 29 29 29 28 27 25 21 20 21 21 24 25 23 23 25 26 26 26 26 28 27 27 25 24 24 25 26 29 32 33 33 33 33 33 33 32
4 4 5 4 4 10 14 15 14 13 13 13 12 11 11 14 16 18 18 16 15 16 19 21 22 21 21 20 22 30 33 28 26 28 29 27 24 22 23 25 28 31 35 37 39 38 37 36 36 37 37 36 34 32 29 24 22 23 23 23 29 31 26 24 25 27 27 26 26 28 28 28 26 24 24 25 25 26 30 32 33 33 33 33 32 32
5 5 4 5 4 8 12 14 15 13 12 11 12 13 15 17 16 15 13 12 13 17 19 19 16 15 19 18 17 26 30 23 23 27 27 27 28 27 26 27 29 33 37 40 42 43 44 44 43 44 44 42 40 36 31 27 26 25 24 26 31 33 29 25 26 27 28 27 27 29 30 28 26 25 25 25 25 25 27 30 32 32 32 32 31 30
6 5 4 6 6 9 13 14 12 10 8 8 11 16 19 18 16 14 12 15 20 18 14 13 13 14 17 18 17 21 23 19 22 27 26 26 28 28 28 29 32 35 38 41 43 43 45 47 48 48 47 44 42 39 36 33 30 27 26 28 33 34 32 29 28 28 28 28 29 30 30 29 27 26 25 25 25 25 25 28 30 31 31 31 31 29
6 6 6 7 5 9 12 9 7 9 9 8 11 15 17 17 18 17 17 21 22 18 14 14 15 17 19 20 20 21 22 21 25 30 31 30 27 26 28 30 33 35 37 41 43 43 43 44 45 45 45 45 45 46 44 39 33 31 31 32 34 36 35 32 30 30 30 30 30 31 31 29 27 26 25 24 24 25 26 27 29 30 30 30 29 28
6 7 7 6 6 8 8 7 9 10 8 9 10 11 14 16 19 21 21 23 23 20 18 19 21 22 24 26 28 29 30 31 31 34 38 38 34 31 31 35 37 37 39 41 42 42 41 42 43 43 44 46 47 47 45 42 39 37 35 34 35 36 36 34 33 31 30 30 31 32 32 29 26 25 25 24 23 24 25 26 27 28 29 28 26 25
7 7 6 6 7 6 7 10 11 5 2 5 9 10 12 14 16 17 17 19 23 22 20 21 24 26 26 30 35 35 36 35 31 36 46 45 40 39 39 42 44 43 43 44 43 42 42 40 41 42 44 46 47 46 45 44 42 39 36 35 36 36 37 36 34 32 31 30 31 32 31 28 25 24 23 23 23 23 24 25 26 26 25 24 23 23
11 7 6 7 7 6 9 11 9 8 7 6 9 11 12 11 13 13 12 15 19 19 19 21 24 26 25 29 34 34 32 25 19 30 49 47 37 40 44 45 47 47 46 46 45 44 44 42 42 43 43 44 45 44 44 42 39 37 35 36 37 37 38 37 34 32 30 30 30 31 29 25 23 22 22 21 21 22 22 23 24 24 24 23 22 21
15 10 8 8 7 6 9 11 10 11 10 9 12 16 15 14 13 11 10 12 11 13 20 21 22 25 23 23 28 27 21 13 8 22 45 43 31 35 41 41 45 47 45 44 43 42 43 43 44 45 44 43 43 42 40 38 36 36 36 37 38 38 37 35 32 30 29 29 29 27 25 22 20 20 19 19 19 19 19 20 21 23 23 23 22 21
17 12 9 9 8 8 10 11 10 9 8 7 10 12 13 16 13 8 9 10 9 16 25 21 18 22 19 19 23 19 12 8 7 20 40 42 33 33 35 37 40 41 37 35 35 37 39 40 42 44 43 41 39 37 36 35 35 36 37 37 36 35 33 30 28 27 27 26 25 24 22 20 19 18 18 17 16 16 16 16 18 19 20 20 20 20
14 11 10 11 10 11 13 12 8 7 6 5 9 11 10 10 11 9 9 8 10 20 27 22 20 21 21 24 24 13 8 10 13 24 40 43 35 31 29 30 31 30 28 27 28 30 33 35 37 39 38 36 34 33 33 34 34 34 33 32 30 28 26 25 25 24 23 23 22 21 19 18 18 17 16 15 14 14 14 15 15 16 17 17 17 16
7 8 10 11 11 12 14 12 8 7 5 6 15 19 10 2 6 10 10 9 11 18 22 22 24 24 25 27 22 12 15 24 29 35 41 38 32 26 21 20 22 23 25 25 24 25 28 31 34 35 33 32 31 30 30 30 29 28 27 26 25 23 23 23 22 22 21 21 20 19 18 17 17 16 15 15 14 14 13 13 13 14 14 14 13 12
4 4 6 8 10 10 11 11 9 7 4 7 19 21 7 3 7 11 11 13 13 15 19 24 27 24 23 26 25 22 28 33 33 33 33 31 29 26 22 21 23 25 27 29 28 28 29 30 31 31 29 28 26 25 25 25 24 24 23 23 22 22 21 21 20 20 20 19 18 18 18 17 17 16 16 15 15 14 14 14 13 13 13 12 11 11
4 4 5 6 7 7 9 10 9 5 2 3 11 10 3 4 7 14 15 17 18 17 18 23 25 21 17 20 24 26 28 28 26 24 23 24 25 26 26 26 28 28 29 30 30 29 29 28 28 27 26 25 23 23 23 22 22 21 21 21 21 20 20 19 19 18 18 18 18 18 18 17 17 17 16 16 16 16 16 16 15 15 14 13 13 12
4 6 7 5 5 6 8 7 3 2 1 8 8 3 4 12 22 26 22 21 24 24 21 22 25 24 18 15 20 25 26 25 22 19 18 20 23 25 26 25 24 25 25 26 26 27 26 25 25 24 24 23 23 22 22 21 20 20 20 20 19 18 18 18 17 17 17 18 18 17 17 17 17 17 17 18 18 18 17 17 17 17 16 15 15 14
4 3 6 5 4 5 5 6 6 6 8 12 11 10 18 27 30 29 25 24 28 29 28 30 33 32 27 21 18 20 22 20 17 16 19 24 28 28 27 25 23 22 22 23 24 24 24 24 25 25 25 24 22 21 20 20 19 19 18 18 17 17 17 17 17 17 17 17 17 17 17 18 18 18 19 19 19 19 19 18 18 18 17 16 15 14
1 2 4 3 3 4 5 10 10 10 12 16 20 22 27 29 28 28 26 26 29 32 32 32 33 33 30 25 19 16 16 16 18 22 26 30 31 29 28 27 25 23 22 24 25 25 26 26 26 26 24 22 21 20 19 19 18 17 17 17 17 17 17 16 16 16 16 17 17 18 18 19 20 20 20 20 19 18 18 18 18 17 16 15 15 14
2 1 2 3 3 4 4 5 6 11 14 20 25 26 27 27 25 23 23 24 28 30 30 30 30 31 31 28 25 25 25 25 27 31 34 35 34 33 31 28 26 25 24 24 24 25 26 25 24 24 22 20 20 20 19 19 18 17 16 16 17 17 17 16 16 17 17 18 18 19 20 20 21 22 21 20 19 18 18 17 16 15 15 14 14 14
5 4 3 3 3 5 6 9 16 25 27 27 25 22 22 24 24 23 25 28 29 29 29 30 30 30 30 30 29 30 33 34 35 37 38 38 37 37 35 31 28 27 26 24 23 24 24 23 22 22 21 20 20 20 20 20 19 18 17 17 17 18 17 17 17 17 18 18 19 20 21 21 21 22 22 20 19 18 18 17 16 15 15 14 14 14
10 8 4 5 7 8 9 12 18 22 20 18 19 20 23 26 27 28 30 31 30 31 32 33 33 31 31 32 31 31 34 37 37 37 38 39 38 38 37 34 31 28 27 26 24 24 24 23 21 20 20 21 21 21 21 21 20 19 18 18 18 18 18 18 18 18 18 19 19 20 21 21 20 20 20 20 20 19 18 17 16 16 15 15 14 14
11 7 4 6 9 8 7 9 13 12 9 13 21 28 31 31 29 30 33 33 33 34 36 37 39 38 36 35 34 34 36 38 38 37 37 39 39 36 34 33 32 29 27 27 26 25 24 23 22 21 21 21 22 22 22 21 20 19 19 19 18 17 17 18 18 18 18 18 19 19 20 20 20 20 19 20 20 20 19 19 18 17 17 17 16 16
12 9 7 8 9 9 13 19 22 17 14 20 30 35 34 33 30 30 32 34 35 37 38 39 40 41 40 39 37 36 37 39 38 37 36 37 36 33 32 33 31 27 26 26 26 26 25 24 23 23 23 23 24 24 22 21 20 19 19 18 18 17 17 17 17 18 18 19 19 19 19 20 20 20 19 19 20 20 20 20 20 20 18 17 17 16
Wind_Direction
209 199 202 213 214 207 201 207 227 41 18 346 322 277 256 261 246 145 102 90 101 264 254 249 258 264 264 266 268 269 267 262 258 253 252 251 249 250 252 255 256 259 263 263 263 264 264 263 262 261 260 256 254 252 248 245 244 245 245 245 246 244 242 242 243 244 244 243 242 242 243 243 242 241 239 234 228 227 224 223 225 225 223 226 233 238
206 226 219 214 187 137 161 155 91 350 310 286 275 272 247 249 244 104 92 110 128 266 265 268 274 271 268 268 267 267 266 261 257 252 250 248 247 247 249 252 255 258 262 264 265 264 264 264 263 262 260 257 254 252 251 249 247 246 245 246 246 245 244 244 246 248 248 247 244 244 244 244 244 241 238 232 228 225 221 221 224 224 222 223 229 236
209 230 217 142 95 86 99 153 208 239 262 254 251 264 259 242 211 105 90 113 158 247 278 297 293 283 279 274 266 261 258 258 256 251 251 252 250 248 247 249 251 252 254 261 267 267 266 265 263 263 261 258 256 253 251 250 248 247 247 247 247 247 247 246 247 248 250 249 246 244 243 242 242 239 237 234 231 225 221 222 225 227 229 230 232 233
214 220 144 107 118 134 134 169 195 211 232 234 239 251 245 137 238 210 94 138 198 235 285 306 298 285 283 275 263 251 246 253 259 256 255 253 250 249 249 250 251 250 252 259 265 265 267 269 267 265 263 261 257 253 251 250 249 248 248 248 248 248 249 248 248 248 249 249 245 243 241 240 240 238 236 234 230 226 225 225 227 230 233 233 231 227
220 85 83 125 158 185 169 170 191 209 226 222 222 238 252 287 309 324 30 309 242 230 265 296 286 273 273 268 265 251 229 242 255 254 251 248 251 255 253 254 255 255 256 259 261 260 264 270 272 272 269 265 260 256 254 252 250 250 250 249 248 248 249 248 248 248 247 247 246 243 241 239 238 234 232 229 225 224 224 224 224 226 226 225 224 223
223 93 131 148 159 197 193 191 200 214 234 219 210 225 251 285 344 1 355 328 275 241 189 298 290 269 277 275 271 267 231 242 239 233 239 244 251 256 254 258 262 264 264 263 262 260 261 267 272 274 273 270 265 261 258 254 251 250 249 249 248 248 248 248 248 247 246 247 247 245 241 239 235 231 229 226 225 225 222 221 221 220 220 221 224 227
151 124 158 152 156 172 200 226 203 205 240 236 211 238 252 272 314 292 306 294 284 305 162 226 285 282 291 282 274 275 274 270 253 239 246 248 248 249 249 258 265 268 268 268 268 264 262 266 270 272 271 269 266 261 256 252 248 246 246 247 246 247 247 247 247 246 246 246 247 245 242 240 237 234 233 230 228 225 222 222 222 221 223 226 230 229
137 159 178 166 169 173 200 229 186 195 232 242 21 354 218 202 232 243 277 255 282 326 260 198 234 273 274 269 269 271 271 270 261 251 252 250 248 248 248 253 260 264 266 267 270 267 262 263 265 266 267 266 264 259 253 248 245 244 245 246 246 246 247 247 248 247 247 247 247 246 242 240 237 235 235 234 230 224 222 223 223 223 225 226 228 229
132 172 184 177 185 200 201 162 158 194 221 37 49 29 80 94 109 182 256 263 288 320 274 191 182 261 264 249 252 251 256 263 259 255 256 251 244 243 243 242 251 261 264 266 266 260 253 251 252 256 262 265 264 260 253 247 243 241 243 245 246 247 247 248 248 248 248 247 247 246 242 239 237 234 234 234 231 226 225 225 223 223 226 226 226 228
60 172 199 190 198 211 154 48 33 208 199 133 134 89 85 87 77 110 267 289 286 278 267 180 170 253 285 245 207 204 240 254 255 257 256 238 189 175 191 204 248 274 276 267 247 230 223 219 225 242 261 272 271 268 260 250 244 241 241 244 246 246 248 248 248 247 247 247 246 245 242 239 237 234 231 230 228 226 225 225 223 223 226 228 227 223
70 51 273 215 221 142 106 67 25 23 115 143 148 116 107 115 92 230 255 319 276 263 262 164 173 221 295 249 183 186 240 243 249 247 189 142 140 150 157 159 196 269 260 235 213 200 197 203 220 249 273 278 274 273 268 260 252 246 244 245 247 248 248 249 249 247 247 247 246 244 241 238 237 235 231 229 226 223 221 222 224 224 225 227 224 220
137 167 164 173 155 111 112 89 46 49 130 157 164 156 160 177 169 223 207 165 247 246 78 93 181 211 256 245 141 120 352 308 262 237 184 168 173 172 178 225 260 267 257 239 221 217 221 228 241 267 283 278 270 267 265 264 259 253 249 247 249 250 250 251 251 247 245 245 245 243 240 236 236 235 232 229 227 224 221 220 223 225 226 226 223 224
193 206 159 118 146 176 159 119 87 82 183 199 188 175 198 220 199 225 213 191 233 229 99 25 312 234 247 258 248 232 261 255 252 273 291 289 270 258 257 261 268 267 257 243 234 237 240 242 253 276 285 276 266 262 258 257 256 255 255 253 252 253 253 255 254 249 244 244 244 242 239 236 235 235 233 230 228 227 224 222 224 226 229 230 228 231
197 208 162 151 171 201 200 172 151 169 186 195 190 181 200 212 216 231 220 215 232 209 72 23 13 252 258 273 265 248 251 248 258 284 291 285 276 270 265 262 266 266 261 253 247 249 252 253 261 275 280 270 261 257 252 251 252 254 257 257 256 255 255 258 257 251 245 244 244 242 240 237 235 234 232 230 228 228 226 225 227 229 233 235 234 236
214 244 182 178 164 176 199 217 194 167 178 200 202 198 211 216 230 239 232 242 240 151 112 186 193 234 246 336 340 279 291 282 277 278 274 279 277 273 275 269 265 267 267 265 265 267 263 260 262 268 267 259 254 251 248 248 250 252 256 257 258 258 259 262 261 255 248 246 244 242 240 237 235 234 231 230 229 227 226 226 229 234 238 237 237 237
222 242 164 151 144 165 185 217 196 164 176 200 203 217 231 234 244 255 287 284 301 347 210 192 234 248 258 309 296 279 283 272 259 248 253 273 278 282 291 281 270 274 275 278 286 282 262 253 255 257 255 251 250 251 251 252 252 254 256 258 261 262 262 264 265 262 255 250 247 243 241 238 236 235 232 230 229 228 227 228 231 236 236 235 237 236
220 246 125 118 146 169 183 202 181 188 187 177 186 209 225 10 286 253 220 90 68 281 250 210 254 271 285 292 273 251 256 255 253 253 254 265 267 266 275 274 272 275 277 284 292 275 245 242 245 246 248 249 250 251 251 253 256 257 259 260 262 261 259 260 264 265 261 256 251 247 243 241 238 238 236 233 230 229 229 230 232 233 232 234 236 233
219 261 136 165 179 169 33 19 133 340 13 160 193 194 112 44 338 254 247 228 222 252 252 228 251 265 275 280 257 207 237 241 247 258 258 259 255 248 259 267 269 270 274 280 276 261 250 242 236 238 241 239 237 236 238 244 249 256 263 266 266 263 261 261 263 266 264 259 255 251 246 242 240 239 238 237 233 229 228 229 229 228 230 234 234 231
204 234 213 189 212 132 92 184 196 160 43 33 301 208 123 219 222 210 225 239 237 245 255 247 251 255 247 254 267 262 259 259 261 264 263 262 258 253 259 268 271 271 271 261 247 252 251 238 231 228 220 211 207 206 210 218 222 234 250 259 264 265 265 263 264 267 265 259 256 253 248 243 240 238 237 237 236 231 228 227 225 226 232 234 230 229
185 222 222 24 337 128 133 202 206 173 141 17 315 246 197 252 236 214 210 220 237 246 254 256 254 249 239 248 262 267 269 274 277 277 275 272 270 266 267 275 286 288 281 266 243 235 233 230 222 207 196 192 197 205 209 218 226 239 255 267 272 271 272 270 269 271 269 264 259 256 253 246 240 238 236 235 236 234 231 226 223 227 233 232 229 229
179 214 221 138 107 186 179 203 204 185 169 181 219 211 195 201 248 282 244 222 234 245 248 255 258 257 255 255 259 267 276 279 281 286 282 279 278 274 275 282 286 288 293 293 255 216 215 218 206 194 194 198 205 211 212 219 238 259 270 279 284 283 282 278 274 275 275 271 265 260 256 250 243 239 236 236 236 235 233 227 222 226 231 231 232 231
192 207 214 171 177 210 207 198 201 199 188 189 200 203 204 201 186 231 237 213 217 244 251 260 267 269 267 264 267 273 280 288 303 316 297 285 278 276 288 290 285 284 293 293 245 207 206 206 197 193 199 205 211 215 213 220 240 260 266 269 276 280 279 276 273 272 273 273 268 263 256 250 245 240 237 237 235 232 231 227 223 225 229 231 233 228
201 214 221 211 203 202 171 107 89 351 254 231 223 215 214 207 196 216 224 196 189 211 265 277 270 271 269 264 269 271 274 303 330 330 291 280 275 280 291 287 283 287 292 274 227 207 204 200 197 198 200 206 213 212 215 229 245 256 259 261 271 276 273 270 268 266 267 268 267 263 255 249 246 241 236 235 233 230 228 225 223 225 228 230 230 224
170 211 225 229 221 173 119 108 89 51 297 253 244 224 219 221 217 225 233 233 209 194 209 241 243 261 267 253 228 255 178 226 264 262 260 266 272 277 280 278 280 290 289 254 219 208 205 203 202 202 202 206 211 212 219 232 240 248 251 256 270 275 270 267 266 265 265 265 265 261 255 249 246 242 237 233 232 230 225 222 223 225 228 233 230 222
164 202 212 223 229 206 183 183 176 156 192 231 234 217 218 227 226 226 89 256 247 226 226 237 239 255 263 188 121 171 172 213 239 243 248 256 265 268 271 278 288 298 287 248 224 214 209 208 208 207 207 207 209 215 223 229 235 241 240 250 271 273 267 265 264 265 266 267 264 260 257 253 249 245 240 235 232 229 225 222 223 224 227 232 230 226
180 215 194 206 225 215 207 211 203 187 179 202 226 218 216 214 210 211 205 218 234 235 235 240 245 258 265 265 248 211 189 221 239 240 243 249 259 267 274 283 292 299 294 263 239 231 221 215 214 212 210 210 212 219 227 231 240 241 238 251 272 269 262 261 262 263 265 266 265 260 259 257 253 249 245 239 234 229 225 224 224 227 229 228 229 233
167 267 212 220 233 232 240 288 77 139 166 189 210 211 214 214 209 211 219 222 230 239 242 240 242 256 265 267 264 254 234 235 248 255 252 244 249 265 280 289 293 297 299 285 258 243 233 224 221 218 214 215 220 227 232 241 249 245 247 266 279 270 262 260 260 262 264 266 266 264 260 258 255 252 249 245 239 232 226 225 225 228 230 228 229 234
121 241 227 234 244 250 264 285 79 121 190 211 215 210 211 214 209 210 222 227 229 237 245 243 240 248 260 266 267 268 271 272 267 268 268 259 249 257 272 284 291 294 295 289 270 253 243 233 228 226 222 223 229 233 238 249 253 249 257 278 283 275 269 265 261 263 265 267 268 267 263 259 256 253 250 247 242 234 228 225 224 225 226 227 230 233
163 242 239 247 258 264 272 275 272 277 267 245 240 233 219 209 202 207 225 231 229 234 248 256 255 254 259 265 268 272 277 277 277 280 282 274 259 253 259 270 279 284 285 284 275 262 253 245 240 236 231 232 236 239 245 250 251 255 268 283 286 280 274 268 263 263 265 266 267 268 266 262 257 254 250 246 241 235 229 225 224 224 225 228 231 231
155 246 246 254 272 274 274 274 270 269 269 261 255 253 246 229 212 209 220 228 229 236 247 257 262 261 259 262 271 279 280 278 281 284 283 274 256 247 253 262 268 271 274 276 275 270 261 252 247 245 245 244 245 247 250 251 254 264 275 285 289 285 277 267 263 262 262 264 266 266 266 263 258 254 249 245 241 235 229 225 224 225 226 229 233 232
175 210 211 199 264 270 267 268 264 256 257 258 256 253 252 250 235 222 223 227 231 240 243 247 255 262 262 262 271 277 277 276 278 276 273 267 256 250 256 260 262 265 266 267 269 271 270 263 256 253 252 251 253 255 254 255 261 267 273 282 287 284 276 267 262 260 260 262 263 264 263 261 257 252 246 243 241 236 229 225 224 226 227 229 234 235
183 207 180 159 224 253 248 250 253 252 250 250 254 249 237 238 239 233 229 227 229 235 239 242 248 256 263 266 267 271 273 272 271 271 269 265 260 258 261 262 263 264 265 265 265 266 269 269 266 263 259 256 257 258 259 262 265 266 270 280 284 280 274 269 264 260 259 260 260 260 260 258 254 249 244 240 238 236 231 226 224 225 227 229 234 237
182 203 199 189 218 249 246 242 242 247 247 238 239 237 229 228 233 237 240 237 233 232 235 241 242 246 261 270 266 264 266 266 267 269 267 264 264 267 268 265 265 264 264 265 264 262 263 264 265 268 269 267 266 266 267 268 267 268 272 277 279 276 272 269 266 262 258 257 258 258 257 255 251 246 242 238 236 234 230 225 223 224 226 230 236 238
185 207 223 214 223 251 252 248 236 235 237 232 229 227 223 224 225 226 232 235 234 233 234 243 251 254 260 264 262 262 264 265 268 270 270 270 273 275 273 268 266 265 265 265 264 263 263 264 265 268 270 271 272 272 272 271 271 274 273 272 273 272 269 269 268 263 258 257 258 257 255 252 248 244 241 238 234 231 227 224 223 225 229 234 239 239
185 204 220 222 233 253 262 261 246 234 225 231 239 228 216 216 219 223 230 235 237 239 238 241 248 251 251 254 257 261 264 266 270 272 274 274 274 275 273 270 268 266 265 267 266 266 267 267 267 267 268 270 271 271 271 272 275 275 270 267 269 268 266 267 266 261 257 256 257 256 252 248 245 242 240 237 233 229 226 224 224 227 232 237 241 241
201 204 216 227 233 246 256 247 243 250 239 233 243 232 214 211 218 227 237 241 240 239 238 239 243 246 249 252 255 258 263 269 275 275 272 272 272 272 270 269 269 268 267 268 268 268 269 269 267 266 266 267 268 268 270 273 273 269 265 264 265 264 264 265 263 259 256 255 256 254 251 247 243 241 238 235 232 227 224 222 223 225 230 235 240 243
224 218 220 228 223 227 245 245 253 282 283 246 238 234 219 208 213 222 236 244 240 236 236 238 243 248 249 251 255 260 266 272 278 274 270 269 268 269 269 269 271 272 270 269 270 269 270 270 267 266 265 264 265 268 270 270 267 264 262 263 263 262 263 262 259 257 255 255 254 251 248 245 242 239 236 232 229 227 224 222 222 224 227 231 236 241
228 223 217 224 218 216 238 247 250 258 252 237 240 241 236 232 229 223 235 248 247 238 234 232 240 246 247 250 257 262 266 267 261 267 271 272 271 270 272 274 275 275 274 274 274 272 270 268 267 266 265 266 267 268 266 263 262 262 263 264 264 263 261 259 257 256 255 253 250 247 244 242 238 234 232 228 226 226 224 222 222 224 228 232 236 240
223 222 218 230 233 224 233 241 240 244 249 248 251 253 251 250 245 237 247 251 246 243 241 236 240 247 247 252 256 255 256 257 247 261 271 276 278 274 274 276 278 279 280 278 275 272 269 268 267 267 267 267 267 265 263 261 261 263 264 264 263 260 258 255 254 253 251 247 243 241 238 234 229 225 222 219 219 220 221 221 221 224 229 234 239 245
220 222 220 228 232 229 236 244 244 248 260 271 270 273 272 252 234 230 246 244 233 242 246 243 243 246 246 249 253 248 234 240 248 264 273 278 280 278 277 278 280 282 282 279 273 270 269 268 268 268 267 267 266 264 263 263 263 263 261 260 257 255 252 250 248 245 242 238 235 233 229 223 218 215 211 207 207 209 211 213 214 218 225 231 238 246
223 224 223 228 229 229 236 243 248 255 261 267 266 267 273 247 211 224 240 250 248 251 254 252 250 248 243 244 247 242 239 247 255 264 271 275 279 283 284 280 279 283 284 282 278 275 274 271 269 268 268 268 267 265 264 262 259 257 255 254 253 250 248 245 241 237 234 231 227 222 216 211 207 202 198 195 194 196 200 202 204 210 218 225 231 235
227 221 225 230 231 233 237 241 252 256 223 235 257 263 259 162 219 244 260 275 277 268 262 261 261 257 244 238 242 246 249 254 258 263 269 276 283 290 291 283 279 280 280 281 282 281 278 272 269 269 268 267 265 260 256 254 252 252 252 250 248 245 241 238 233 230 227 222 217 211 206 202 197 190 187 185 184 186 187 187 190 198 204 208 212 214
212 221 235 225 225 237 236 238 249 244 187 288 285 275 181 169 289 314 319 311 308 295 275 269 272 272 257 240 244 251 254 258 264 272 279 288 297 303 300 290 283 279 277 278 279 279 276 272 269 268 265 261 257 253 251 250 247 245 243 240 238 235 231 228 224 221 217 210 206 202 197 192 187 183 180 178 177 179 179 179 182 188 191 193 197 203
197 222 249 231 211 232 235 232 226 169 43 354 345 295 282 315 323 328 328 320 316 314 312 310 307 306 306 287 268 264 263 267 277 287 295 303 312 317 314 304 291 282 279 277 274 273 272 268 266 265 261 258 255 252 249 244 238 234 231 229 227 224 221 217 213 209 204 200 196 192 187 182 179 177 175 173 174 174 173 174 178 183 186 190 195 200
191 219 277 265 224 237 248 261 291 303 311 329 337 318 312 319 322 320 317 311 307 307 309 312 311 313 318 316 297 277 270 274 286 297 308 317 319 318 318 314 302 289 280 274 269 266 265 263 263 262 260 257 252 246 240 233 227 224 222 219 217 214 211 207 203 199 194 191 187 182 180 176 173 173 172 170 172 172 172 174 179 183 186 189 191 193
32 37 339 299 280 299 262 246 267 302 316 320 324 322 316 315 318 320 315 307 306 306 303 302 303 305 307 308 306 298 292 294 298 301 309 318 320 316 313 312 306 295 281 272 267 264 263 263 261 258 253 248 241 234 228 223 218 214 213 210 205 203 201 197 193 189 185 183 179 176 175 173 170 169 170 169 170 171 173 177 180 182 184 186 186 185
300 318 292 277 299 308 274 246 287 313 314 312 315 316 313 312 317 322 316 310 310 308 302 299 302 304 301 297 293 292 295 298 297 298 303 309 312 311 308 305 303 296 284 272 266 264 264 262 256 249 242 235 230 224 218 214 206 199 200 200 195 191 190 187 186 183 179 178 175 173 173 173 171 169 169 169 169 170 172 176 178 179 182 183 183 183
287 316 306 272 264 261 271 295 300 295 295 299 300 303 309 314 316 317 315 312 310 305 302 304 306 306 303 298 293 291 294 296 296 297 299 301 304 304 301 299 298 293 284 274 266 261 259 254 246 239 233 227 223 217 210 203 194 187 191 194 190 185 183 182 181 180 178 175 174 172 172 172 172 171 169 168 169 169 171 172 173 176 179 180 181 182
287 305 305 285 283 275 273 285 288 285 286 288 288 292 302 307 308 309 310 309 307 306 307 310 311 309 306 302 300 298 297 298 299 298 297 296 297 297 296 293 290 285 279 274 267 260 253 246 237 230 226 223 219 213 203 195 189 186 188 191 187 182 181 179 177 177 176 174 173 172 170 170 172 172 171 169 169 170 170 169 171 173 173 174 177 178
267 267 254 266 275 273 272 280 283 284 286 287 289 293 297 300 303 306 306 306 305 305 306 307 308 308 305 303 303 301 299 300 302 300 296 294 293 293 291 287 282 277 274 270 263 254 246 238 228 221 219 218 216 209 198 191 189 187 186 188 186 182 180 178 174 173 173 172 172 171 170 170 171 172 173 172 170 170 170 169 170 171 171 175 177 176
244 244 245 254 258 263 274 280 282 283 284 285 287 289 290 293 297 299 299 301 302 304 306 306 304 304 304 304 304 301 298 300 301 299 297 295 292 289 286 281 275 269 266 264 257 247 237 230 222 216 212 211 210 205 196 191 190 187 185 185 183 180 179 177 175 173 172 171 173 173 173 173 173 172 174 174 173 174 175 173 173 173 175 179 180 178